EW4557 Weather Reports


Display with metric or nautical units.
time (UTC)temp
F
wind
direction
speed
MPH
gust
MPH
rain 1hr
in
rain 24hr
in
rain mn
in
humidity
%
barometer
mb
20260507042636 40 0 0.0 5.0 0.03 0.11 0.11 91 1021.1
20260507040636 40 0 2.0 5.0 0.04 0.11 0.11 91 1020.1
20260507034516 40 0 3.0 13.0 0.01 0.08 0.08 91 1020.6
20260507033555 40 0 6.0 12.0 0.02 0.08 0.08 91 1020.2
20260507032636 40 0 5.0 10.0 0.04 0.08 0.08 91 1020.2
20260507031556 40 0 6.0 11.0 0.03 0.07 0.07 90 1019.6
20260507030515 40 0 6.0 13.0 0.03 0.07 0.07 90 1019.4
20260507025516 40 0 7.0 14.0 0.03 0.07 0.07 90 1019.1
20260507024555 40 0 9.0 15.0 0.03 0.07 0.07 90 1018.8
20260507023555 40 0 8.0 17.0 0.02 0.06 0.06 89 1018.7
20260507022555 40 0 9.0 16.0 0.01 0.04 0.04 89 1018.3
20260507021515 40 0 7.0 12.0 0.02 0.04 0.04 88 1018.6
20260507020515 40 0 5.0 13.0 0.04 0.04 0.04 88 1018.4
20260507015635 40 0 9.0 16.0 0.04 0.04 0.04 87 1017.2
20260507014555 40 0 10.0 17.0 0.04 0.04 0.04 87 1017.3
20260507013515 40 0 11.0 15.0 0.04 0.04 0.04 87 1017.2
20260507012515 40 0 10.0 20.0 0.03 0.03 0.03 85 1017.2
20260507005635 41 0 9.0 22.0 0.00 0.00 0.00 82 1016.9
20260507004515 41 0 18.0 26.0 0.00 0.00 0.00 81 1016.6
20260507003635 41 0 16.0 24.0 0.00 0.00 0.00 80 1016.1
20260507002555 42 0 14.0 23.0 0.00 0.00 0.00 79 1015.7
20260507001515 43 0 15.0 24.0 0.00 0.00 0.00 77 1015.6
20260507000515 44 0 17.0 29.0 0.00 0.00 0.00 74 1015.5
20260506235635 48 0 19.0 27.0 0.00 0.00 0.00 75 1015.4
20260506234555 50 0 12.0 24.0 0.00 0.00 0.00 70 1015.5
20260506233555 53 0 18.0 27.0 0.00 0.00 0.00 62 1015.3
20260506232555 56 0 15.0 27.0 0.00 0.00 0.00 56 1015.3
20260506231515 56 0 13.0 21.0 0.00 0.00 0.00 55 1015.0
20260506230515 57 0 14.0 23.0 0.00 0.00 0.00 54 1014.9
20260506224555 60 0 10.0 22.0 0.00 0.00 0.00 50 1014.1
20260506223555 61 0 5.0 18.0 0.00 0.00 0.00 49 1014.0
20260506222635 61 0 10.0 18.0 0.00 0.01 0.00 49 1013.7
20260506221515 62 0 9.0 18.0 0.00 0.01 0.00 47 1013.6
20260506220515 62 0 11.0 17.0 0.00 0.01 0.00 47 1013.6
20260506215515 62 0 8.0 14.0 0.00 0.01 0.00 49 1013.5
20260506214555 61 0 7.0 14.0 0.00 0.01 0.00 50 1013.7
20260506213515 61 0 6.0 14.0 0.00 0.01 0.00 50 1014.0
20260506212555 61 0 7.0 16.0 0.00 0.01 0.00 50 1013.9
20260506211517 62 0 5.0 13.0 0.00 0.01 0.00 50 1014.1
20260506210557 60 0 5.0 14.0 0.00 0.01 0.00 51 1013.8
20260506205517 59 0 9.0 13.0 0.00 0.01 0.00 53 1013.7
20260506204516 60 0 7.0 13.0 0.00 0.01 0.00 53 1013.9
20260506202557 59 0 5.0 10.0 0.00 0.01 0.00 53 1014.1
20260506201516 60 0 6.0 14.0 0.00 0.01 0.00 52 1014.2
20260506200557 59 0 6.0 15.0 0.00 0.01 0.00 54 1014.2
20260506195517 59 0 6.0 11.0 0.00 0.01 0.00 54 1014.3
20260506194516 58 0 5.0 12.0 0.00 0.01 0.00 56 1014.2
20260506192557 58 0 8.0 13.0 0.00 0.01 0.00 57 1014.4
20260506191516 57 0 8.0 15.0 0.00 0.01 0.00 57 1014.6
20260506190516 57 0 6.0 15.0 0.00 0.01 0.00 59 1014.8
20260506185516 57 0 7.0 15.0 0.00 0.01 0.00 59 1015.0
20260506184516 56 0 5.0 10.0 0.00 0.01 0.00 62 1015.1
20260506183516 56 0 8.0 13.0 0.00 0.01 0.00 60 1015.3
20260506182556 55 0 4.0 11.0 0.00 0.01 0.00 64 1015.4
20260506181636 53 0 5.0 14.0 0.00 0.01 0.00 66 1015.1
20260506180516 54 0 4.0 11.0 0.00 0.01 0.00 64 1015.4
20260506175516 53 0 5.0 11.0 0.00 0.01 0.00 67 1015.6
20260506174516 52 0 4.0 12.0 0.00 0.01 0.00 67 1015.4
20260506173516 51 0 4.0 4.0 0.00 0.01 0.00 71 1015.7
20260506172056 50 0 3.0 8.0 0.00 0.01 0.00 72 1015.3
20260506170016 49 0 3.0 9.0 0.00 0.01 0.00 72 1015.1
20260506165136 49 0 4.0 10.0 0.00 0.01 0.00 73 1015.1
20260506164016 47 0 3.0 9.0 0.00 0.01 0.00 77 1014.9
20260506163016 46 0 4.0 8.0 0.00 0.01 0.00 78 1014.8
20260506161056 45 0 4.0 8.0 0.00 0.01 0.00 80 1015.0
20260506160136 45 0 2.0 4.0 0.00 0.01 0.00 81 1015.0
20260506155016 45 0 2.0 5.0 0.00 0.01 0.00 81 1015.1
20260506154016 44 0 2.0 5.0 0.00 0.01 0.00 82 1014.9
20260506153016 44 0 2.0 4.0 0.00 0.01 0.00 83 1014.9
20260506152016 44 0 1.0 4.0 0.00 0.01 0.00 82 1014.8
20260506150016 43 0 2.0 4.0 0.00 0.01 0.00 82 1014.7
20260506145016 43 0 2.0 8.0 0.00 0.01 0.00 83 1014.8
20260506144056 43 0 2.0 4.0 0.00 0.01 0.00 83 1014.8
20260506143056 43 0 2.0 4.0 0.00 0.01 0.00 83 1014.7
20260506142016 43 0 2.0 5.0 0.00 0.01 0.00 83 1014.7
20260506141136 42 0 3.0 6.0 0.00 0.01 0.00 84 1014.6
20260506135056 42 0 3.0 6.0 0.00 0.01 0.00 84 1015.1
20260506134056 42 0 3.0 6.0 0.00 0.01 0.00 84 1015.0
20260506133015 41 0 4.0 8.0 0.00 0.01 0.00 84 1014.9
20260506132016 42 0 3.0 6.0 0.00 0.01 0.00 83 1014.9
20260506131016 42 0 2.0 6.0 0.00 0.01 0.00 83 1014.8
20260506130015 42 0 3.0 8.0 0.00 0.01 0.00 83 1014.9
20260506125136 41 0 2.0 4.0 0.00 0.01 0.00 84 1014.8
20260506124015 41 0 2.0 5.0 0.00 0.01 0.00 84 1014.9
20260506123055 41 0 2.0 6.0 0.00 0.01 0.00 84 1014.8
20260506122015 41 0 3.0 8.0 0.00 0.01 0.00 84 1014.8
20260506121055 41 0 2.0 8.0 0.00 0.01 0.00 84 1014.8
20260506120015 41 0 3.0 4.0 0.00 0.01 0.00 83 1014.6
20260506114135 41 0 1.0 4.0 0.00 0.01 0.00 83 1014.1
20260506113015 41 0 2.0 6.0 0.00 0.01 0.00 83 1013.8
20260506111015 41 0 3.0 5.0 0.00 0.01 0.00 83 1013.6
20260506110015 41 0 2.0 8.0 0.00 0.01 0.00 82 1013.6
20260506105015 41 0 3.0 8.0 0.00 0.01 0.00 82 1013.7
20260506104056 41 0 3.0 9.0 0.00 0.01 0.00 82 1013.5
20260506103015 41 0 3.0 8.0 0.00 0.01 0.00 81 1013.8
20260506102015 41 0 1.0 5.0 0.00 0.01 0.00 81 1013.7
20260506101015 41 0 3.0 8.0 0.00 0.01 0.00 81 1013.7
20260506095015 41 0 1.0 3.0 0.00 0.01 0.00 81 1014.0
20260506094055 41 0 1.0 4.0 0.00 0.01 0.00 81 1014.4
20260506093015 41 0 3.0 6.0 0.00 0.01 0.00 80 1013.3
20260506092015 41 0 2.0 8.0 0.00 0.01 0.00 80 1013.3
20260506091055 41 0 3.0 9.0 0.00 0.01 0.00 80 1013.4
20260506090055 40 0 2.0 4.0 0.00 0.01 0.00 80 1012.9
20260506085015 40 0 0.0 2.0 0.00 0.01 0.00 79 1013.0
20260506084055 40 0 1.0 2.0 0.00 0.01 0.00 79 1012.5
20260506083015 41 0 0.0 2.0 0.00 0.01 0.00 78 1012.2
20260506082055 41 0.0 0.0 0.00 0.01 0.00 78 1012.4
20260506081015 41 0.0 0.0 0.00 0.01 0.00 78 1012.3
20260506073015 43 0.0 1.0 0.00 0.01 0.00 75 1013.2
20260506072135 43 0 1.0 2.0 0.00 0.01 0.00 75 1012.9
20260506071015 44 0 1.0 5.0 0.00 0.01 0.00 75 1013.2
20260506070135 44 0 2.0 8.0 0.00 0.01 0.00 75 1013.0
20260506062017 45 0 5.0 13.0 0.00 0.01 0.00 75 1012.4
20260506061057 45 0 7.0 14.0 0.00 0.01 0.00 75 1012.1
20260506060137 45 0 6.0 13.0 0.00 0.01 0.01 74 1012.1
20260506051016 47 0 5.0 10.0 0.00 0.01 0.01 68 1012.1
20260506045056 48 0 2.0 6.0 0.00 0.01 0.01 68 1011.8
20260506044016 48 0 5.0 9.0 0.00 0.01 0.01 68 1011.3